• Join FlightAware (Why Join?)
  • Login
  • US Flag 
03:45PM EDT


 

Airport Tracker/Info


-or-


 

Live Flight TrackerFlight Track Log ✈ CNS128 ✈ 28-Feb-2014 ✈ KHTO - KPSM

Flight Track Log - Related Links

Times and Time Zones

All times are in EST time to prevent confusion due to time zone crossing. See the CNS128 flight status page for this flight to view local times or setup timezone preferences in your user account.

Time Position Orientation Groundspeed Altitude Reporting Facility
EST Latitude Longitude Course Direction KTS MPH feet Rate Location/Type
06:12PM 41.2825 -72.0611 27° Northeast 227 261 11,500  Level Boston Center
06:13PM 41.3506 -72.0150 27° Northeast 255 293 11,400 -60 Descending Boston Center
06:14PM 41.4156 -71.9714 27° Northeast 261 300 11,400  Level Boston Center
06:15PM 41.4803 -71.9278 27° Northeast 262 302 11,500  Climbing Boston Center
06:16PM 41.5497 -71.8803 27° Northeast 260 299 11,500  Level Boston Center
06:17PM 41.6147 -71.8367 27° Northeast 261 300 11,500  Level Boston Center
06:18PM 41.6800 -71.7922 27° Northeast 263 303 11,500  Level Boston Center
06:19PM 41.7508 -71.7447 27° Northeast 264 304 11,500  Level Boston Center
06:20PM 41.8169 -71.6997 27° Northeast 264 304 11,500  Level Boston Center
06:21PM 41.8825 -71.6547 27° Northeast 264 304 11,500  Level Boston Center
06:23PM 41.9486 -71.6097 27° Northeast 266 306 11,500  Level Boston Center
06:24PM 42.0194 -71.5614 27° Northeast 266 306 11,500  Level Boston Center
06:25PM 42.0856 -71.5164 27° Northeast 267 307 11,500  Level Boston Center
06:26PM 42.1517 -71.4714 27° Northeast 267 307 11,500  Level Boston Center
06:27PM 42.2219 -71.4217 28° Northeast 265 305 11,500  Level Boston Center
06:28PM 42.2886 -71.3767 27° Northeast 268 308 11,500  Level Boston Center
06:29PM 42.3592 -71.3278 27° Northeast 268 308 11,500  Level Boston Center
06:30PM 42.4247 -71.2814 28° Northeast 266 306 11,500  Level Boston Center
06:31PM 42.4906 -71.2358 27° Northeast 268 308 11,500 -420 Level Boston Center
06:32PM 42.5622 -71.1869 27° Northeast 269 310 10,700 -900 Descending Boston Center
06:33PM 42.6292 -71.1400 27° Northeast 271 312 9,700 -960 Descending Boston Center
06:34PM 42.6939 -71.0942 27° Northeast 265 305 8,800 -1,020 Descending Boston Center
06:36PM 42.8214 -71.0044 27° Northeast 247 284 6,600 -1,200 Descending Boston Center
06:37PM 42.8833 -70.9667 24° Northeast 232 267 5,200 -1,500 Descending KA90
06:38PM 42.9333 -70.9167 36° Northeast 219 252 3,700 -1,500 Descending KA90
06:39PM 42.9833 -70.8667 36° Northeast 169 194 2,100 -960 Descending KA90
06:40PM 43.0167 -70.8333 36° Northeast 135 155 1,700 -360 Descending KA90
06:41PM 43.0333 -70.8000 56° Northeast 126 145 1,400 -540 Descending KA90
06:43PM 43.0844 -70.8256 340° North 93 107 100 -660 Descending Boston Center
06:45PM 43.0779 -70.8233 166° South  Level Estimated
06:52PM 43.0779 -70.8233 North  Level Estimated
06:53PM 43.0779 -70.8233 North  Level Estimated
06:54PM 43.0779 -70.8233 North  Level Estimated
06:55PM 43.0779 -70.8233 North  Level Estimated
06:56PM 43.0779 -70.8233 North  Level Estimated
06:57PM 43.0779 -70.8233 North  Level Estimated